Temp
9 9 9 10 10 10 11 11 12 12 13 13 13 14 14 14 14 15 15 15 15 16 17 17 18 19 18 18 19 19 19 19 19 19 19 19 19 19 19 18 18 17 17 16 15 15 15 14 13 14 13 13 12 12 11 11 11 11 11 10 10 10 10 10 9 9 9 8 9 10 9 9 9 9
9 9 9 9 9 10 10 10 11 11 12 12 13 13 13 14 14 14 14 15 15 16 16 17 17 18 18 18 19 19 19 19 19 19 19 19 19 19 19 18 18 17 17 17 16 15 15 14 13 13 14 14 13 13 12 12 11 11 11 10 10 10 10 10 9 9 9 9 9 9 9 9 9 8
9 9 9 9 9 9 9 9 10 10 11 12 12 13 13 14 14 13 13 14 15 15 16 16 17 17 17 18 18 18 18 19 19 19 19 19 19 19 19 19 18 18 17 17 16 16 15 14 13 13 14 14 14 13 13 12 12 11 11 10 10 10 10 10 9 9 9 9 9 9 9 9 9 8
9 9 8 8 8 8 8 9 9 9 10 10 11 12 12 13 13 13 13 13 14 15 15 16 16 16 17 17 17 17 18 18 19 19 19 18 18 19 19 19 18 18 17 17 17 16 15 14 14 14 14 14 14 14 13 13 12 11 11 11 10 10 10 10 9 9 9 9 9 9 9 9 8 8
8 8 8 8 8 8 8 8 9 9 9 10 10 11 11 12 13 13 13 13 13 14 15 15 15 16 16 16 17 17 17 18 18 18 18 18 18 18 18 18 18 18 18 17 17 16 15 14 14 14 14 14 14 14 14 13 13 12 11 11 10 10 10 10 9 9 9 9 9 9 9 8 8 8
8 8 8 8 8 8 8 8 8 8 9 9 9 10 10 11 12 12 13 13 13 14 14 15 15 15 15 15 16 16 17 17 17 18 18 18 18 18 18 18 18 18 17 17 17 16 15 14 14 14 14 14 14 14 14 13 13 12 11 11 10 10 10 10 10 9 9 9 9 9 8 8 8 8
8 8 8 8 8 8 8 8 8 8 8 8 8 9 10 10 11 11 12 13 13 13 14 14 14 15 15 15 15 16 16 16 17 17 18 18 18 18 17 17 17 18 17 17 17 16 15 15 14 14 14 13 13 13 13 13 13 12 11 11 10 10 10 10 9 9 9 9 9 9 8 8 8 8
8 8 8 8 8 8 8 8 8 7 7 8 8 8 9 9 10 10 11 12 12 13 13 14 14 14 15 15 15 15 16 16 16 16 17 17 17 17 16 16 16 17 17 17 17 16 15 15 14 14 14 13 13 13 13 13 13 12 11 11 10 10 10 10 9 9 8 8 8 8 8 8 8 7
8 8 8 8 8 8 8 7 7 7 7 7 8 8 8 9 9 10 10 10 11 12 12 13 14 14 14 15 15 15 15 15 15 15 15 15 15 15 15 15 15 16 16 16 16 15 15 14 14 14 14 14 13 13 13 13 13 12 11 11 10 10 10 10 9 9 9 8 8 8 8 8 7 7
8 8 8 8 8 8 8 7 7 7 7 7 7 7 8 8 8 8 8 9 9 10 11 12 13 13 14 14 14 15 15 15 14 13 13 14 14 14 14 14 14 14 15 15 15 14 14 14 14 14 14 13 13 13 13 13 12 12 11 11 10 10 10 10 9 9 9 8 8 8 7 7 7 7
8 8 8 8 8 8 7 7 7 7 7 7 7 7 7 7 7 7 7 8 8 8 9 10 11 12 13 13 14 14 14 13 13 13 12 12 12 12 12 13 13 13 13 13 14 13 13 14 14 13 13 13 13 13 13 12 12 12 11 11 10 10 10 10 9 9 8 8 8 7 7 7 7 6
7 7 7 7 7 7 7 7 7 7 7 7 7 7 7 7 7 7 7 7 7 7 8 8 9 11 12 13 13 13 13 12 12 12 12 12 12 12 12 12 12 12 12 13 13 13 13 13 13 13 13 13 13 13 13 12 12 11 11 11 10 10 10 9 9 9 8 8 7 7 7 7 6 6
6 6 6 7 7 7 7 7 7 7 7 7 7 7 7 7 7 7 7 7 7 7 7 8 8 9 11 12 12 12 12 12 12 13 12 12 12 12 12 11 11 12 12 12 12 12 13 12 12 12 12 12 12 12 12 12 12 11 11 11 10 10 10 9 9 8 8 7 7 7 7 7 6 6
6 6 6 6 6 6 6 6 6 6 6 6 6 6 6 6 6 6 6 6 6 7 7 7 8 8 9 11 11 11 12 13 13 12 12 11 11 11 9 9 10 11 11 11 11 12 12 12 11 11 11 11 11 11 11 11 11 11 11 10 10 10 10 9 9 8 8 7 6 7 7 6 6 6
6 5 5 5 5 5 6 6 6 6 6 6 6 6 6 6 6 6 6 6 6 6 7 7 8 8 9 10 10 11 12 12 12 12 12 11 10 9 9 9 9 10 11 11 10 10 11 10 10 11 11 11 11 11 11 11 11 11 11 10 10 10 9 9 8 8 7 6 6 6 6 6 6 6
5 5 5 5 5 5 5 5 5 5 5 5 6 6 6 6 6 6 6 6 6 6 6 7 7 8 8 9 10 10 11 11 11 11 12 11 10 9 9 9 10 11 12 10 9 9 10 9 9 10 11 10 10 10 11 11 11 10 10 10 10 9 9 9 8 8 7 6 6 6 6 6 6 6
5 5 5 5 4 4 4 4 4 4 5 5 5 5 5 5 6 6 6 6 5 5 6 6 7 7 8 8 9 10 11 11 11 11 10 10 10 10 10 10 11 12 11 9 8 8 9 9 9 9 9 9 9 10 10 10 10 10 10 9 9 9 9 8 8 7 6 6 6 6 6 6 6 6
4 4 4 4 4 4 4 4 4 4 4 4 4 5 5 5 5 5 5 5 5 6 6 6 6 7 7 8 9 9 10 11 11 11 10 10 10 9 9 10 10 10 10 10 9 8 8 8 8 8 8 8 9 9 9 10 9 9 9 9 9 8 9 8 8 7 6 6 6 6 6 5 6 6
4 4 4 4 4 4 4 4 4 4 4 4 4 4 4 5 5 5 5 5 5 5 5 6 6 6 7 7 8 8 9 10 10 11 11 11 10 9 9 9 9 9 10 9 8 8 8 8 7 7 7 7 8 8 8 9 9 8 8 8 8 8 8 8 7 6 6 6 6 6 6 5 5 5
3 3 3 3 3 3 3 3 3 3 3 4 4 4 4 4 4 4 5 5 5 5 5 5 5 6 6 6 7 7 8 9 10 10 11 10 9 9 8 8 8 9 9 8 8 8 8 7 7 7 6 6 6 7 7 7 7 7 7 8 8 8 8 7 7 6 5 5 5 5 5 5 5 5
3 3 3 3 3 3 3 3 3 3 3 3 3 3 4 4 4 4 4 4 5 5 5 5 5 5 5 6 6 7 8 9 9 9 9 9 9 9 8 7 7 8 9 8 8 8 7 7 7 6 5 5 5 6 6 6 6 6 7 7 7 7 7 7 6 5 5 5 5 5 5 5 5 5
2 2 2 2 2 2 2 2 2 2 2 3 3 3 3 4 4 4 4 4 4 5 5 5 5 5 5 6 7 8 8 9 9 9 9 9 9 9 9 8 7 7 8 8 8 7 7 7 6 5 5 4 5 5 5 5 6 6 6 6 6 7 7 6 6 5 5 5 5 5 5 5 5 5
2 2 2 2 2 2 1 1 1 2 2 2 2 3 3 3 3 4 4 4 4 4 5 5 5 5 5 6 7 7 8 9 9 8 9 10 9 9 9 9 8 6 7 8 8 7 7 7 6 5 5 4 4 5 5 5 5 5 5 5 6 6 6 6 5 5 5 5 4 5 5 5 5 5
1 1 1 1 1 1 1 1 1 1 1 1 2 2 2 3 3 3 4 4 4 4 4 4 5 5 5 5 6 6 7 8 8 8 8 9 10 10 10 9 8 8 9 10 9 8 7 7 6 5 6 6 5 4 4 5 5 5 5 6 6 6 6 5 5 5 5 4 5 5 5 5 5 5
0 0 0 0 0 0 0 0 0 1 1 1 1 1 2 2 3 3 3 4 4 4 4 4 4 4 4 4 5 5 6 6 7 8 8 9 10 10 10 10 9 9 10 10 10 8 7 6 6 5 5 6 5 4 3 3 4 4 5 6 6 6 6 5 5 5 5 4 5 5 5 5 5 5
-0 -0 -0 -0 -0 -0 -0 -0 -0 0 0 0 1 1 1 1 2 2 3 3 3 4 4 4 4 4 4 4 4 5 5 6 7 7 8 9 9 10 11 11 10 10 10 10 10 9 8 7 6 5 5 5 4 4 3 2 2 4 5 5 5 6 6 5 5 5 5 5 5 5 5 5 5 5
-1 -1 -1 -1 -1 -1 -1 -1 -1 -1 -0 -0 0 0 0 1 1 2 2 2 3 3 3 3 4 4 4 4 4 4 5 5 6 7 8 9 9 10 11 11 11 11 11 11 10 10 9 8 7 6 6 5 3 2 2 2 2 3 3 3 4 5 5 5 5 5 5 5 5 5 5 5 5 5
-1 -1 -1 -1 -1 -1 -1 -1 -1 -1 -1 -1 -1 -0 -0 0 0 1 1 2 2 3 3 3 3 3 3 3 4 4 4 5 6 7 8 9 9 10 10 10 10 10 10 10 10 9 8 8 7 7 7 6 4 2 2 2 2 2 3 3 3 4 5 4 4 5 5 5 5 5 5 5 5 5
-1 -1 -1 -1 -2 -2 -2 -2 -2 -1 -1 -1 -1 -1 -1 -0 -0 0 1 2 2 2 2 3 3 3 3 3 4 4 4 5 6 6 7 8 9 9 9 9 9 10 10 10 10 9 8 8 8 7 6 6 5 4 3 2 2 2 3 3 3 4 4 4 4 4 4 4 4 4 4 5 5 5
-2 -2 -2 -2 -2 -2 -2 -2 -1 -1 -1 -1 -1 -1 -1 -1 -0 -0 1 1 2 2 2 3 3 3 3 3 4 4 4 5 6 6 7 8 8 8 8 8 8 8 9 9 9 9 8 7 8 7 5 5 5 4 4 3 2 2 3 4 3 3 4 3 3 3 3 3 3 4 4 5 5 5
-2 -2 -2 -2 -2 -2 -2 -1 -1 -1 -1 -1 -1 -1 -0 -1 -0 -0 0 1 2 2 2 3 3 3 3 3 4 4 4 5 6 6 7 7 7 7 8 7 7 7 7 7 8 8 7 7 7 7 5 4 4 5 5 5 3 2 3 4 4 3 3 3 3 3 3 3 4 4 4 5 5 5
-2 -2 -2 -2 -2 -2 -2 -1 -1 -1 -1 -1 -0 -0 -0 -0 -0 -0 0 1 2 2 2 3 3 3 3 3 4 4 4 5 6 6 7 7 7 7 7 6 5 4 5 5 5 6 6 6 6 6 6 5 5 5 5 4 4 3 3 4 4 3 3 2 3 3 3 3 4 4 4 4 5 4
-2 -2 -2 -2 -2 -2 -1 -1 -1 -1 -0 -0 -0 -0 -0 -0 -0 0 0 1 1 2 2 2 3 3 3 3 4 4 4 5 6 6 7 7 6 6 6 5 4 4 4 3 4 4 4 5 5 5 5 5 5 5 4 3 3 4 4 3 3 3 2 2 2 2 3 3 4 4 4 4 4 3
-2 -2 -2 -1 -1 -1 -1 -1 -0 0 0 0 0 -0 -0 -0 0 0 1 1 1 2 2 2 2 3 3 3 4 4 5 5 6 6 6 6 6 6 6 5 4 4 4 3 3 4 4 4 4 4 4 5 4 5 5 5 4 4 3 3 3 2 2 2 2 2 3 4 4 4 3 3 2 2
-2 -2 -1 -1 -1 -1 -0 0 0 1 1 1 0 0 0 0 0 1 1 1 2 2 2 2 2 3 3 3 4 4 5 5 5 5 5 5 5 5 5 4 3 3 3 3 3 3 3 4 4 3 3 3 3 3 4 5 4 4 3 2 2 2 2 2 2 3 3 4 4 3 2 2 2 2
-2 -1 -1 -1 -1 -0 -0 0 1 1 1 1 1 1 1 1 1 1 1 2 2 2 2 2 3 3 3 4 4 4 5 4 4 4 4 5 5 5 4 4 3 3 3 2 2 3 3 4 4 3 2 2 2 2 2 3 4 4 3 2 1 2 2 2 3 3 4 3 3 3 2 1 1 1
-2 -2 -1 -1 -1 -1 -0 0 1 1 1 1 1 1 1 1 1 1 1 2 2 3 3 3 3 3 4 4 4 4 4 4 4 4 4 4 4 4 3 3 2 2 2 1 2 3 3 3 3 3 3 2 2 0 -0 1 3 4 3 2 1 2 2 3 3 3 3 3 3 3 2 1 1 1
-2 -2 -2 -2 -1 -1 -1 -1 0 1 1 2 1 1 1 2 2 2 2 2 2 3 3 3 4 4 4 4 3 3 3 3 3 3 3 3 3 3 2 2 1 1 1 1 2 2 3 3 3 3 3 2 1 0 -0 0 1 2 3 3 2 2 3 3 3 3 3 3 2 2 2 2 1 1
-2 -2 -2 -2 -2 -2 -1 -1 -0 0 1 2 2 2 2 2 2 2 2 2 2 3 3 3 3 4 3 3 3 3 2 2 2 2 2 3 3 2 2 2 1 1 1 1 2 2 3 3 3 3 3 2 2 1 1 1 1 1 2 3 3 3 4 3 3 3 2 2 2 2 1 1 1 1
-2 -2 -2 -2 -2 -2 -2 -1 -1 -0 1 1 2 2 2 2 2 2 2 2 3 3 3 3 3 3 3 2 2 2 2 2 2 2 2 2 2 2 2 1 1 1 1 2 2 3 3 3 3 3 3 2 2 2 2 1 1 2 2 3 4 4 4 4 3 3 2 2 2 1 1 1 0 1
-3 -3 -2 -2 -2 -2 -2 -1 -1 -0 0 1 1 2 2 2 2 2 2 3 3 3 3 3 3 2 2 2 2 2 2 2 2 2 2 2 2 2 2 2 2 2 2 2 2 2 3 3 3 4 3 2 2 2 2 1 1 1 2 2 3 3 3 3 3 3 2 2 1 1 1 0 0 0
-3 -3 -3 -3 -2 -2 -2 -2 -1 -1 -0 0 1 1 1 2 2 2 2 2 2 3 2 2 2 2 2 2 2 2 2 2 1 1 1 1 1 1 2 2 2 2 1 1 1 2 2 3 4 4 3 3 3 2 1 -0 -0 -0 1 2 2 2 3 2 2 2 2 1 1 1 0 0 -0 -0
-3 -3 -3 -3 -3 -2 -2 -2 -1 -1 -1 -0 0 1 1 1 1 2 2 2 2 2 2 1 1 1 1 2 2 2 2 1 1 1 1 1 2 1 1 1 1 1 1 0 1 1 2 3 4 3 3 3 3 2 0 -0 -0 0 0 1 2 2 2 2 1 1 1 1 1 0 0 0 -0 -1
-3 -3 -3 -3 -3 -3 -2 -2 -2 -1 -1 -1 -0 0 1 1 1 1 1 1 1 1 1 1 1 1 1 1 1 1 1 1 1 1 1 1 1 1 1 1 1 0 0 0 0 1 1 2 3 3 3 3 3 2 0 -0 0 0 0 1 1 1 1 1 1 1 1 0 0 -0 -0 -0 -0 -1
-3 -3 -3 -3 -3 -3 -3 -2 -2 -2 -1 -1 -1 -0 -0 0 1 1 1 1 1 1 1 1 1 1 1 1 1 1 1 1 1 1 1 1 1 1 1 1 0 0 0 0 0 0 1 2 2 3 2 2 2 1 1 0 0 0 1 1 1 1 1 1 1 1 0 -0 -0 -0 -0 -0 -0 -1
Height
818 818 817 817 816 815 815 815 814 814 814 813 813 812 811 811 810 808 806 804 801 800 801 800 800 801 803 803 804 804 803 803 804 805 805 805 806 808 810 812 813 814 815 817 819 821 823 825 827 828 831 834 835 836 837 838 839 839 840 841 841 842 843 843 843 844 844 843 843 844 844 843 842 842
816 816 815 815 814 813 813 813 812 812 812 811 811 810 809 809 808 808 806 802 799 798 798 798 798 799 800 801 801 801 801 801 801 802 802 803 803 805 807 808 809 811 812 814 816 818 820 822 824 825 827 830 832 834 835 836 837 838 838 839 840 841 841 842 842 843 843 842 843 843 843 842 842 841
815 814 813 813 812 812 812 811 811 810 810 810 809 808 807 807 806 805 805 802 798 797 797 796 797 798 798 799 799 798 799 798 799 799 800 800 801 803 804 805 806 807 809 811 813 815 817 819 821 823 824 826 829 831 832 834 835 836 837 837 838 839 840 841 841 841 841 841 842 842 842 842 841 841
813 812 812 811 811 810 810 809 809 808 808 808 807 806 806 805 804 803 802 800 796 794 795 795 795 796 797 797 796 796 796 796 796 797 797 798 799 800 801 801 802 804 806 807 809 811 813 816 818 820 822 824 826 827 829 831 832 833 834 835 836 838 838 839 840 840 840 840 840 841 841 841 840 840
811 811 810 809 809 809 808 808 807 807 806 806 805 805 804 803 802 801 799 797 794 792 792 792 792 794 795 795 794 793 793 794 794 794 794 795 796 797 797 798 799 801 802 804 806 808 810 813 815 817 819 821 823 824 826 827 829 831 832 833 835 836 837 838 839 838 838 839 839 839 839 839 839 839
810 809 808 807 807 807 807 806 806 805 804 804 803 803 803 801 801 800 798 795 793 789 788 789 790 790 792 791 791 791 790 791 791 792 791 791 792 793 793 794 795 797 799 800 802 805 807 809 812 814 816 818 820 822 823 824 826 828 829 831 832 834 835 836 837 837 837 837 838 838 838 838 838 837
808 807 806 806 805 805 805 804 804 803 803 802 801 800 800 800 798 798 797 795 792 789 785 786 787 787 788 787 787 788 788 788 788 789 788 788 789 789 789 790 792 794 796 797 799 801 804 806 808 811 813 815 817 818 820 822 823 825 827 829 831 832 834 835 835 836 836 836 836 836 836 836 836 836
806 806 805 804 804 804 803 802 801 801 801 800 800 798 798 797 796 796 795 794 792 789 785 783 783 784 784 784 784 784 785 785 785 785 785 786 786 786 786 787 789 791 792 794 795 798 800 803 805 808 810 812 814 816 818 819 821 822 824 826 828 830 831 833 833 834 835 835 835 835 835 835 835 835
804 804 803 802 802 802 801 800 799 799 799 799 798 797 796 795 794 793 793 792 791 789 785 782 781 781 781 781 781 781 781 781 781 782 783 783 784 784 784 784 786 787 790 791 793 795 798 800 803 805 807 809 811 813 815 816 818 820 822 824 826 828 829 831 832 833 833 834 834 834 834 834 834 834
802 801 801 800 800 800 799 799 798 797 797 797 796 796 795 794 793 791 790 790 789 788 785 782 780 779 778 778 778 778 779 779 778 779 780 781 781 781 781 782 783 784 787 789 791 793 795 798 800 802 804 806 808 810 811 814 815 817 820 822 824 825 827 828 830 831 832 832 833 833 833 833 833 833
799 799 799 798 798 798 797 796 796 795 795 795 794 794 793 793 792 790 789 789 788 787 785 782 780 778 777 775 774 775 776 777 777 778 778 778 779 779 779 779 780 782 784 786 789 791 793 795 797 799 800 802 804 806 808 810 812 814 817 819 821 823 824 826 827 829 830 831 832 832 832 832 832 831
797 796 796 795 795 795 794 794 794 793 793 792 791 791 792 791 790 789 788 787 787 786 785 782 780 779 777 774 772 772 774 775 776 776 775 774 775 776 777 777 778 780 782 784 786 788 790 792 794 796 798 799 801 803 804 806 809 811 814 816 818 820 822 823 825 827 828 829 830 830 830 830 830 830
794 793 793 792 792 792 791 791 791 791 791 790 789 788 789 789 788 787 787 786 785 784 783 781 779 778 777 774 772 770 769 770 772 772 773 773 773 773 774 775 776 778 780 782 783 784 786 788 790 792 794 796 798 800 802 803 806 808 810 813 815 817 819 821 823 824 826 826 827 828 828 829 829 829
790 790 789 789 789 788 788 788 788 787 787 787 787 786 785 786 785 785 784 784 783 782 781 779 778 776 774 774 773 770 767 766 768 769 771 771 771 772 774 774 775 776 778 780 781 781 782 784 785 788 790 791 794 797 798 800 803 805 807 810 812 814 816 818 821 822 823 824 825 826 827 827 827 827
786 786 785 785 785 784 784 784 784 783 783 783 783 782 782 782 782 782 781 781 780 780 778 776 776 774 772 771 772 771 769 767 766 766 767 767 768 770 771 772 772 773 774 776 777 778 780 781 782 783 784 787 789 791 794 797 800 803 805 807 809 811 813 816 818 820 821 823 824 825 825 825 825 826
782 782 781 781 781 780 780 780 779 779 778 778 778 777 777 777 777 777 778 777 777 777 776 774 772 771 770 769 768 769 769 768 766 766 765 766 766 767 767 767 767 767 769 772 774 775 777 778 780 780 781 783 786 788 791 794 798 800 802 805 807 808 811 813 816 818 819 821 822 823 823 824 824 824
779 778 777 776 776 776 776 776 775 775 774 773 773 772 772 771 771 771 772 772 773 773 772 770 767 767 768 766 765 766 768 767 766 765 765 764 764 764 763 762 762 763 765 768 771 772 773 775 777 778 779 782 784 787 789 792 795 797 800 803 805 806 809 811 813 815 817 819 821 821 822 822 822 823
776 775 774 772 771 772 772 771 771 771 770 769 768 767 766 765 765 765 766 767 768 768 767 765 763 763 764 763 761 764 766 765 764 764 763 763 762 762 761 761 762 763 764 765 767 769 770 773 775 776 777 780 782 784 786 788 791 794 797 800 803 805 807 809 811 813 815 817 819 820 820 820 821 821
772 771 770 768 767 767 767 767 767 767 766 765 763 762 761 760 759 759 760 761 762 762 762 761 759 759 760 759 759 760 762 762 761 761 761 761 761 762 762 762 763 763 764 765 767 767 768 770 772 773 775 777 779 781 783 785 788 790 794 798 801 804 806 807 809 811 813 816 817 818 818 819 819 820
768 767 766 765 763 763 762 763 763 763 763 761 759 757 755 754 754 753 754 757 757 756 756 756 755 754 755 755 756 756 757 758 758 759 758 758 759 760 761 761 761 761 762 764 765 766 767 768 770 771 773 775 776 778 780 782 785 787 791 795 798 802 804 806 807 809 811 814 816 816 817 817 818 818
763 763 762 761 760 758 758 758 758 759 758 756 754 752 750 749 748 746 749 751 751 750 751 750 750 750 750 750 751 752 752 753 754 755 753 752 754 756 757 758 758 758 759 761 763 766 766 766 768 770 772 773 775 776 778 780 783 786 789 792 796 799 802 804 805 807 809 812 814 815 815 816 816 817
759 758 757 757 756 754 753 754 754 754 754 752 749 748 746 744 741 741 745 746 744 744 745 744 744 745 745 745 746 746 746 747 749 749 747 747 749 750 751 752 754 756 756 757 761 764 763 764 766 769 772 773 774 774 776 778 781 784 787 790 793 796 800 802 803 804 806 809 812 813 814 814 815 815
754 753 752 752 751 750 749 749 748 748 749 747 744 744 742 738 735 737 740 740 739 740 739 738 739 739 739 740 740 740 740 741 741 742 742 743 744 744 745 747 750 752 751 751 755 758 758 759 762 765 769 771 772 772 774 777 779 782 785 787 790 794 797 799 801 802 804 807 809 811 812 812 813 814
749 748 747 746 746 745 744 743 743 742 742 741 739 738 736 732 731 734 735 734 734 735 734 733 733 734 734 735 734 734 735 735 735 735 737 738 738 738 740 742 743 743 740 742 747 751 753 755 758 761 764 766 768 770 772 774 776 779 782 785 787 791 794 797 799 800 802 804 807 808 810 811 812 812
744 742 742 741 740 739 738 737 737 736 736 736 734 731 730 728 729 731 730 728 729 730 728 728 728 728 728 729 729 729 729 730 730 730 731 732 732 733 734 736 737 736 735 736 741 745 749 752 754 758 761 763 765 767 769 772 774 776 779 782 784 788 791 794 797 798 800 802 804 806 808 809 810 811
739 738 736 735 734 733 732 731 730 729 729 729 727 724 724 724 725 726 724 723 724 723 723 723 722 722 723 723 723 723 723 724 726 726 725 726 727 727 728 730 731 731 731 734 736 739 743 746 749 753 757 760 763 765 767 771 773 774 777 781 783 786 789 792 794 797 799 801 803 804 806 808 809 810
734 732 730 729 728 727 726 724 723 722 722 721 719 718 718 719 719 720 719 718 718 717 717 717 716 716 717 717 717 718 718 719 721 721 721 721 722 723 724 725 727 727 728 731 733 735 738 741 744 747 751 755 760 763 766 768 770 772 775 779 782 785 788 791 793 796 798 800 801 803 805 806 808 809
728 726 724 722 721 720 718 717 716 715 714 713 711 711 712 712 713 713 712 711 711 711 711 711 710 710 711 712 713 713 714 715 716 717 717 717 718 719 720 722 724 725 726 729 731 733 736 738 741 744 747 751 755 759 762 765 767 770 773 778 782 785 787 790 793 795 797 799 801 802 804 805 807 808
723 720 717 715 714 713 711 709 708 706 705 704 703 703 704 705 706 706 705 705 705 704 704 704 704 704 706 707 708 710 711 712 712 712 713 713 714 715 717 719 721 722 724 726 728 731 734 736 739 742 746 749 752 755 759 763 766 769 772 776 780 784 787 789 792 794 796 799 801 802 803 805 806 807
716 713 711 709 707 705 703 701 700 697 696 695 695 695 695 696 697 697 698 698 698 697 697 698 699 699 701 703 705 706 707 707 707 708 709 709 710 711 713 716 718 720 722 724 727 729 732 735 738 741 745 749 752 754 757 762 766 769 772 776 780 784 787 789 791 793 796 798 800 802 803 804 805 805
710 707 704 702 700 697 695 693 691 689 688 687 687 687 687 688 688 689 690 691 692 692 692 693 694 695 697 699 700 701 702 702 702 703 705 705 706 707 709 713 715 717 720 723 726 728 731 734 737 740 743 748 752 755 758 761 764 768 773 777 780 783 785 788 790 793 795 797 800 801 802 803 804 804
704 701 698 695 693 690 687 685 683 681 680 679 679 678 679 680 681 682 684 685 686 687 688 689 690 692 693 694 695 696 697 697 697 699 701 701 702 704 706 709 712 715 719 722 725 728 731 734 737 740 743 747 751 754 757 761 764 769 774 778 781 783 785 787 790 792 795 797 799 800 801 803 803 803
699 696 692 689 686 684 681 679 676 674 673 672 671 671 672 673 674 676 677 678 680 681 683 685 686 687 689 689 690 692 692 692 693 695 696 698 699 701 703 706 708 711 715 719 724 728 731 735 739 743 746 749 752 754 756 759 765 770 774 778 781 784 786 788 789 791 794 796 798 799 801 802 802 803
694 691 687 684 681 679 676 673 670 668 667 666 665 665 666 667 668 670 671 672 673 676 678 680 681 683 684 685 686 687 688 688 689 691 693 694 696 698 701 704 707 709 711 716 721 725 730 734 739 743 748 751 753 756 757 758 763 770 775 778 781 783 785 788 790 792 794 795 796 798 800 801 802 803
691 687 684 680 677 674 671 668 665 663 662 661 660 660 661 662 663 664 665 666 668 670 673 675 676 678 679 680 681 682 683 684 686 688 690 692 694 696 698 701 704 708 711 715 719 723 727 731 736 741 747 750 753 758 761 762 764 769 774 778 780 783 786 788 790 792 793 794 795 797 800 801 802 803
689 686 682 678 674 671 668 664 661 659 657 657 656 656 657 657 658 658 659 661 663 665 667 669 671 673 674 676 677 678 679 681 683 685 687 690 692 694 697 700 703 707 710 714 718 722 726 729 732 736 743 748 753 758 763 765 767 769 772 776 781 784 786 788 790 792 793 794 795 797 799 801 802 803
687 684 680 676 672 669 665 661 658 656 654 653 653 653 653 653 653 654 655 658 660 661 663 665 666 668 670 672 673 675 676 678 680 682 685 688 690 694 697 701 704 707 711 715 718 721 725 729 732 734 739 745 752 758 763 766 768 770 772 775 780 784 786 788 789 791 792 794 795 796 798 800 802 803
686 682 679 675 671 667 663 660 657 654 652 651 650 650 650 650 650 651 653 655 657 658 660 662 663 665 667 668 670 672 674 676 679 681 683 686 689 692 696 701 705 709 712 716 721 724 726 729 732 734 736 741 748 754 758 763 768 771 773 775 778 783 785 787 788 790 792 794 796 797 798 800 802 803
685 682 678 674 670 667 663 659 656 653 650 649 648 647 647 647 647 648 649 651 652 654 656 658 660 662 664 666 667 670 672 675 677 680 683 685 688 691 695 700 705 709 714 718 723 726 729 731 734 736 738 741 745 749 752 758 765 771 774 777 779 782 784 786 787 790 792 793 795 797 799 800 802 803
684 681 678 674 670 666 662 659 656 653 650 648 646 645 644 644 644 644 645 646 647 650 652 655 657 659 662 664 666 669 672 675 677 680 683 686 689 691 694 699 704 709 714 719 724 728 731 734 736 738 740 744 748 752 755 759 765 771 775 779 782 783 785 786 788 789 791 793 795 797 799 801 802 802
684 681 678 674 670 666 663 659 656 653 650 648 646 645 643 642 642 641 641 642 643 646 649 651 654 657 660 663 666 668 672 676 680 683 685 687 691 694 696 700 706 711 715 720 725 729 732 736 738 740 743 746 751 755 759 763 768 772 776 780 783 785 787 788 789 790 791 793 795 797 799 800 801 801
685 682 678 674 670 667 663 660 657 654 651 649 647 646 644 643 642 641 641 642 643 645 648 651 654 657 660 663 666 668 671 674 679 683 686 688 691 696 699 703 707 712 716 722 726 730 734 737 740 742 746 750 753 757 762 765 769 773 777 780 784 787 789 791 792 792 793 795 796 797 798 799 799 800
686 683 679 675 672 668 665 661 658 655 653 651 649 647 646 644 643 643 643 644 645 646 649 652 655 658 661 664 667 669 672 675 679 683 687 689 692 696 701 705 709 713 718 723 728 732 736 739 742 745 749 752 755 759 763 767 769 773 777 781 785 787 790 791 793 794 795 796 797 797 797 797 797 798
688 684 681 677 674 670 667 663 660 658 655 653 651 650 648 647 646 646 646 646 647 648 651 655 658 660 663 666 669 672 675 678 681 684 687 691 694 697 702 706 710 715 719 724 729 735 738 741 744 746 750 753 757 760 764 768 771 774 778 782 784 787 789 791 793 794 795 796 797 798 797 797 797 798
690 687 683 680 676 673 669 666 663 660 658 656 654 653 651 650 649 649 649 650 650 651 653 657 661 664 666 668 672 675 678 681 684 686 689 693 697 700 704 708 712 717 722 726 730 735 739 743 745 748 751 755 759 762 765 769 772 776 779 782 785 787 789 791 793 794 795 797 798 798 798 798 799 800
Wind_Speed
20 20 20 20 21 21 20 20 21 21 22 22 23 22 19 14 7 4 6 5 9 18 20 21 25 27 26 25 23 22 22 26 31 36 39 40 40 38 35 33 33 34 35 37 38 37 36 35 35 33 30 28 28 28 27 26 26 24 22 21 20 19 18 16 14 13 13 14 13 11 9 8 8 7
19 20 21 21 21 21 20 20 20 21 21 22 23 23 23 21 15 8 7 7 11 17 19 21 24 26 25 23 23 24 23 23 26 31 37 41 40 39 36 34 34 35 35 36 38 39 37 37 37 35 32 30 28 28 28 28 28 26 25 24 22 21 19 18 16 14 15 15 14 11 10 9 8 8
19 19 21 21 22 21 20 20 21 20 20 20 22 23 23 23 22 18 12 7 12 18 19 20 23 23 22 22 22 24 24 24 26 28 34 40 41 40 38 36 35 36 36 36 38 39 38 37 38 37 34 31 29 29 29 29 28 28 27 26 24 22 21 20 17 16 16 16 14 11 10 9 9 8
19 19 21 21 21 21 22 22 23 22 22 20 21 22 22 22 22 24 20 9 11 23 24 22 24 23 22 23 22 23 24 24 26 28 31 36 39 40 39 38 37 37 37 36 38 40 40 38 38 38 36 33 30 29 31 30 29 30 29 28 26 24 23 21 18 17 18 16 14 12 11 10 9 9
19 20 21 22 21 21 22 23 23 23 23 22 22 22 21 22 21 22 22 14 12 23 26 23 25 25 23 23 24 25 26 25 26 28 29 31 34 38 40 40 39 39 38 37 38 41 41 40 39 38 37 36 32 31 32 32 31 31 30 29 27 25 24 22 19 19 18 17 14 12 11 10 9 9
20 20 21 22 22 21 21 21 21 22 22 22 23 22 21 21 21 21 22 19 15 19 23 22 23 25 24 25 26 27 28 28 27 28 30 30 32 36 41 42 41 40 40 39 39 42 42 41 41 39 38 37 35 34 34 33 32 33 32 30 28 26 24 22 20 19 19 17 14 12 11 10 9 9
20 21 21 22 21 21 21 21 21 22 23 22 22 23 22 21 22 22 23 23 19 20 24 23 22 24 25 26 27 28 29 29 28 29 31 31 32 36 40 41 41 41 42 41 41 42 43 42 42 40 38 38 38 38 37 34 33 34 33 31 29 26 24 23 21 19 19 17 15 13 12 10 10 9
20 20 20 21 21 21 21 22 23 22 23 23 22 23 23 22 22 22 22 23 22 22 24 23 21 22 24 26 27 27 29 30 29 29 30 30 31 35 38 39 40 42 42 42 42 43 44 43 43 41 38 38 39 39 38 35 34 35 34 32 29 27 24 23 22 20 18 17 15 14 12 11 10 9
19 19 20 21 21 21 21 22 23 22 21 21 21 22 23 22 21 21 21 21 23 23 25 25 23 22 23 25 26 28 30 30 28 27 28 29 30 33 36 37 38 40 41 42 43 44 45 44 43 42 39 37 38 40 39 38 36 36 35 32 29 27 25 24 22 20 18 17 16 14 13 12 11 10
21 21 21 22 21 21 21 22 23 23 22 21 21 21 22 22 22 24 24 23 24 24 25 27 26 22 23 25 26 28 30 30 29 26 25 26 29 31 33 34 35 37 38 41 44 45 46 45 45 43 40 37 37 39 41 40 38 36 35 32 30 28 26 24 22 20 18 17 16 15 14 13 12 10
21 21 21 21 22 21 21 21 22 22 22 22 21 21 22 23 24 25 26 25 25 24 25 26 25 23 22 25 26 27 27 27 26 25 25 24 26 28 29 31 33 34 34 38 43 46 46 46 47 46 42 39 38 40 42 41 39 37 35 33 31 29 26 24 22 20 19 17 16 15 14 13 12 11
19 20 21 21 22 22 22 21 21 21 21 21 21 21 21 22 24 24 24 24 23 23 23 24 24 24 22 22 25 23 21 20 22 26 29 27 27 29 30 30 32 32 33 36 41 45 46 46 47 46 44 42 42 42 43 42 40 38 35 34 32 29 26 24 22 20 19 17 16 16 15 14 13 12
21 21 21 22 22 23 23 24 24 25 25 26 27 27 25 23 23 23 23 23 22 20 21 23 24 22 21 21 19 19 21 23 25 28 29 26 27 31 29 28 30 31 32 35 39 43 46 47 46 45 45 44 44 43 43 42 40 37 36 35 33 30 27 24 22 20 19 18 17 16 15 14 13 12
24 24 23 23 24 24 25 26 27 29 29 30 30 31 30 28 26 24 23 22 21 20 19 20 22 20 19 21 18 16 24 29 27 25 26 25 24 24 21 19 25 30 31 33 37 42 45 46 45 45 46 46 44 44 43 42 40 38 37 36 34 30 27 24 22 21 20 17 16 16 15 14 13 13
26 26 25 24 24 25 26 26 27 28 28 29 30 30 31 31 30 28 27 25 23 21 20 20 21 20 21 23 22 19 23 25 24 26 29 28 23 22 17 13 18 28 34 35 36 39 42 43 43 45 47 47 47 46 45 42 40 39 38 37 35 31 27 25 23 21 19 16 15 16 15 14 13 12
26 26 26 25 25 25 25 26 27 27 28 29 29 30 32 32 32 32 31 30 28 25 24 23 24 23 23 25 26 23 22 22 22 25 27 26 25 25 23 19 21 30 37 36 31 33 38 40 40 43 46 46 46 46 45 43 41 40 39 38 35 31 27 25 23 20 16 15 15 16 15 13 13 11
26 26 26 26 26 26 26 26 27 27 29 30 30 31 32 33 34 34 33 34 33 32 31 28 28 27 25 26 29 26 23 23 23 24 24 26 29 29 29 29 28 29 32 35 31 28 33 37 39 40 41 41 43 43 43 43 41 40 40 37 34 32 28 25 22 19 15 15 16 15 14 13 12 11
27 27 27 27 28 27 27 26 26 27 28 30 30 31 31 32 33 32 32 32 31 32 33 31 30 30 28 28 31 30 27 27 26 24 25 28 30 29 26 25 23 22 27 34 31 22 25 34 37 37 37 38 42 43 42 43 42 40 39 37 33 30 27 25 22 18 15 15 15 14 12 12 11 10
28 28 27 28 28 27 27 26 26 26 28 29 31 32 33 34 35 34 33 31 30 32 33 32 32 31 29 28 28 28 29 30 31 30 31 31 28 25 22 19 18 19 23 29 27 18 21 32 35 35 36 36 38 40 40 41 41 40 38 35 32 28 26 24 20 16 15 15 13 12 11 11 10 9
28 28 27 28 28 28 28 27 27 28 29 31 33 33 35 36 37 37 35 32 32 33 34 35 36 35 34 32 31 31 31 31 32 33 31 29 26 22 19 17 18 19 21 27 29 21 19 28 34 33 32 32 33 35 37 38 38 38 36 33 30 28 25 23 19 16 17 16 12 11 11 10 9 8
30 29 28 28 28 29 29 28 28 28 29 32 33 33 34 35 35 36 34 31 32 34 35 37 38 39 39 38 36 36 33 32 33 31 29 27 26 23 16 12 17 22 24 27 30 24 17 22 29 28 25 27 29 30 33 35 35 34 33 32 30 27 25 22 19 18 18 16 12 11 11 10 9 8
31 30 29 29 28 30 30 29 30 29 29 32 32 32 33 33 35 34 30 29 31 31 31 34 35 36 37 34 31 30 28 28 30 32 33 30 29 26 20 16 18 20 23 28 30 25 19 21 24 23 18 19 25 29 29 31 32 30 30 30 29 27 25 22 20 19 19 17 14 12 12 10 9 9
31 31 31 30 30 31 32 32 33 32 32 33 33 32 31 32 34 32 29 30 31 29 29 31 32 33 32 30 29 28 27 25 25 30 36 36 32 29 27 23 16 9 16 31 34 28 24 24 25 24 16 9 16 24 26 26 28 29 28 29 30 28 25 23 21 20 19 17 15 14 13 12 11 11
30 30 30 31 31 33 35 35 35 34 34 34 35 34 33 32 32 30 30 32 31 29 30 31 31 31 31 30 31 32 31 28 25 26 34 40 38 34 31 29 23 17 22 34 39 34 27 25 27 28 21 9 6 15 22 25 26 26 26 30 32 30 27 24 21 19 18 17 16 15 13 12 12 13
32 31 31 32 33 34 36 35 34 34 34 34 36 36 35 35 34 34 34 34 31 30 30 29 29 31 32 32 33 33 32 30 27 25 31 40 43 41 37 33 30 29 28 31 37 37 29 25 28 29 23 13 7 11 17 20 23 25 26 30 32 31 28 24 21 19 19 18 16 15 14 13 14 13
33 33 33 33 33 34 35 35 35 36 36 36 37 38 38 38 38 38 39 37 33 31 31 29 29 31 31 31 31 32 31 30 27 26 30 38 43 45 44 40 36 36 34 30 34 38 33 30 31 31 25 16 10 12 15 15 18 23 24 26 29 29 26 23 20 19 19 18 16 15 14 13 14 14
35 36 36 36 35 35 36 38 38 39 39 39 40 40 40 40 40 40 40 39 35 33 31 29 29 30 30 30 30 30 31 30 28 27 28 34 41 45 47 46 42 41 40 35 34 38 37 33 33 34 31 23 15 12 13 13 16 21 23 23 25 25 22 20 19 18 17 16 13 12 12 12 13 14
36 37 37 37 37 38 39 40 41 41 41 42 43 42 41 41 39 39 39 37 34 32 31 29 29 29 29 29 29 30 30 29 28 27 28 31 39 43 45 44 41 38 38 35 33 37 38 35 33 33 34 30 22 15 12 12 16 23 24 22 22 23 20 18 16 15 14 12 10 10 12 12 13 14
36 38 39 40 41 41 41 42 42 43 44 44 44 44 43 42 40 38 37 35 32 30 29 28 28 29 30 30 30 30 30 29 28 28 27 29 33 37 38 36 34 33 33 31 31 34 37 35 33 31 31 30 26 20 16 15 18 24 26 24 23 21 18 16 14 13 12 11 12 12 12 12 11 12
38 39 39 40 40 39 40 40 40 41 41 41 41 41 41 41 40 37 35 33 31 30 29 28 28 29 29 29 30 29 28 29 29 28 27 26 28 31 32 30 26 24 24 24 26 31 35 34 32 31 29 27 24 22 20 19 20 23 25 25 22 18 17 17 17 16 15 14 14 13 12 11 11 11
36 37 38 38 38 39 39 39 40 40 40 39 38 38 37 37 37 36 35 34 32 30 30 29 28 28 28 29 29 28 28 28 29 28 27 27 27 30 31 27 22 20 20 21 24 29 32 32 31 30 29 27 23 21 20 22 25 25 24 24 23 20 20 21 19 18 16 14 13 11 11 12 11 8
36 36 37 37 36 36 36 36 36 36 36 36 36 35 34 33 34 35 35 35 34 32 30 29 28 27 27 28 29 28 28 28 29 28 28 29 30 31 31 26 22 21 22 22 25 28 29 29 28 28 29 27 25 23 23 24 27 28 25 24 22 20 21 23 21 18 16 14 12 13 12 10 9 9
35 34 33 33 31 31 30 29 29 30 30 30 31 32 32 32 32 33 33 34 34 32 31 29 27 26 27 28 28 27 27 28 28 28 29 31 31 31 30 26 25 27 28 26 25 26 25 25 25 25 25 24 24 26 27 26 26 28 27 24 21 17 19 22 22 18 17 17 17 16 14 12 11 10
30 29 29 28 27 26 26 25 25 26 25 25 25 27 29 30 31 31 32 32 33 32 31 30 29 28 28 27 27 27 27 27 26 27 30 32 32 31 28 24 24 27 30 29 29 28 28 27 27 26 25 24 23 24 26 29 30 30 27 24 21 19 19 20 20 19 20 21 19 18 17 15 12 9
25 24 23 23 23 23 23 24 25 24 22 22 22 22 24 27 30 31 31 32 32 32 31 31 31 30 29 28 26 27 28 27 26 26 28 29 30 30 28 26 25 25 28 30 31 32 34 35 34 31 26 25 22 17 19 28 33 31 27 23 20 19 19 20 21 22 22 21 20 20 19 15 11 10
21 20 20 20 21 21 21 22 24 23 21 20 20 20 21 23 27 30 31 31 31 31 32 32 31 30 29 28 28 29 28 26 26 26 26 26 27 26 25 26 26 27 28 30 32 35 37 38 39 33 23 16 14 10 11 21 29 27 25 24 21 20 21 23 23 23 22 21 21 21 19 15 13 11
19 20 20 20 21 21 21 22 22 21 21 20 20 21 21 22 24 28 30 29 28 29 29 30 29 28 28 28 28 28 27 27 27 27 26 26 25 24 23 24 25 25 27 28 31 36 36 35 35 32 21 11 8 6 9 17 24 24 23 25 24 24 25 25 23 21 21 20 20 19 17 16 15 12
20 20 21 20 21 22 23 23 23 20 20 20 20 21 22 23 23 25 27 28 29 29 27 27 27 27 28 28 28 26 25 25 25 25 26 26 26 25 24 24 24 25 27 28 29 32 34 32 31 30 23 14 8 7 10 17 22 23 24 28 30 28 26 25 24 22 21 19 18 16 14 15 14 13
21 21 21 21 22 22 22 22 22 20 17 17 19 20 21 23 24 25 26 28 30 31 29 27 27 27 27 28 28 27 25 24 24 23 24 25 26 27 28 27 26 26 27 26 25 27 29 28 27 28 26 20 15 17 21 24 23 23 25 27 29 27 25 24 25 24 22 21 19 17 15 15 14 13
23 22 22 22 22 22 22 21 20 17 14 12 13 15 17 20 23 25 26 28 29 30 29 28 27 27 26 26 26 25 23 22 23 24 24 25 25 27 29 29 29 29 27 25 23 24 25 25 26 28 30 28 28 31 34 31 25 22 23 23 22 21 21 21 23 24 22 20 19 19 18 16 14 12
24 23 23 23 23 23 22 21 18 15 12 8 7 8 10 12 14 16 19 22 25 27 27 27 27 26 26 26 27 27 25 23 22 23 25 26 26 28 31 31 29 28 26 23 22 23 23 24 28 32 35 37 37 34 28 22 18 19 21 20 18 17 17 17 19 21 21 20 21 21 19 16 14 13
24 24 24 24 24 23 22 20 18 15 12 7 4 3 4 5 7 10 12 16 20 23 24 25 25 26 26 27 28 29 28 27 25 25 27 29 29 30 30 29 28 27 26 23 23 25 26 27 31 35 36 37 35 27 18 15 17 20 21 20 19 19 18 17 17 18 18 19 20 19 15 13 12 11
25 24 24 24 24 23 22 20 18 15 12 8 4 2 4 7 9 12 14 17 19 20 21 22 24 25 25 26 27 28 29 29 29 29 29 31 32 30 28 28 29 30 30 29 29 30 31 31 34 36 34 31 30 26 21 20 23 24 23 23 23 23 22 22 21 20 19 17 15 14 12 10 10 9
25 25 24 24 24 23 22 21 19 16 14 11 8 6 8 10 12 14 17 19 20 22 22 22 23 24 25 26 26 27 28 29 31 32 31 30 32 32 32 33 34 33 34 34 32 31 32 33 34 34 31 28 29 29 26 24 25 25 25 25 26 25 24 23 22 21 20 17 14 13 13 13 13 13
25 25 24 24 24 23 22 21 19 18 16 14 12 11 11 13 15 17 18 20 22 24 25 25 24 24 26 28 28 28 29 30 31 33 33 32 33 34 34 35 36 34 33 34 32 30 29 30 30 30 29 28 29 30 29 28 27 26 25 25 25 23 22 21 21 20 19 18 15 14 14 14 14 14
Wind_Direction
315 315 314 312 308 307 308 307 305 304 305 305 297 281 267 261 263 268 263 248 250 255 252 253 255 253 257 264 264 262 261 256 251 247 244 242 240 236 233 232 228 224 223 221 220 222 222 215 210 211 216 222 226 226 223 220 222 225 224 223 222 223 224 226 231 235 241 250 262 274 276 272 275 279
316 315 315 315 311 308 310 310 310 309 308 307 303 294 279 264 252 253 270 264 256 258 255 252 255 258 259 260 259 260 263 264 259 251 244 241 240 239 236 233 229 225 224 223 221 223 223 217 212 212 217 224 229 231 228 223 223 226 226 226 226 227 229 233 240 245 248 254 263 269 267 266 270 274
315 314 314 315 313 312 312 310 310 311 311 312 310 305 293 273 255 248 252 266 264 260 257 256 257 259 261 263 262 262 264 263 259 252 245 241 240 242 239 235 231 227 224 223 222 223 224 218 213 213 218 222 226 230 232 227 225 227 228 228 229 229 232 237 244 250 252 256 263 262 260 262 265 269
313 312 312 312 311 312 312 309 308 307 309 310 310 311 305 290 272 255 247 249 270 267 264 262 263 265 267 268 268 266 265 260 256 253 248 244 242 242 241 238 233 228 225 224 223 223 223 218 214 215 219 221 223 229 233 231 227 228 229 229 230 231 234 240 246 251 252 255 259 257 254 256 259 265
310 309 309 308 308 310 311 310 309 307 307 309 308 309 309 303 294 274 254 243 262 272 267 261 263 266 266 266 266 266 265 261 257 255 252 247 244 244 243 240 234 228 225 225 224 223 222 218 216 218 220 221 222 227 232 232 229 228 229 230 231 232 235 241 246 249 251 254 255 254 252 253 258 264
307 307 305 305 307 308 308 308 309 309 308 310 309 308 308 305 303 296 279 262 255 265 265 259 260 263 261 261 263 264 264 262 259 257 254 249 245 244 243 239 234 228 225 225 224 222 221 218 217 219 220 220 223 226 229 229 228 229 230 230 231 233 237 243 246 246 250 253 253 253 252 254 260 263
304 304 302 302 304 306 306 303 305 308 308 308 309 308 308 306 303 303 298 286 272 266 267 261 255 257 257 257 260 262 262 262 260 257 256 253 247 242 239 236 234 229 225 223 223 222 221 219 218 219 219 221 224 226 227 228 229 230 230 231 231 233 238 243 244 245 248 253 254 252 252 255 258 260
299 297 296 297 300 301 301 300 301 303 305 306 306 305 307 310 307 305 304 300 293 285 278 269 256 254 257 258 258 257 256 256 256 254 253 251 246 240 236 234 232 229 226 223 223 221 220 219 218 218 220 222 226 228 228 229 231 231 230 231 230 233 239 243 243 243 247 252 254 253 253 255 256 257
294 293 292 293 296 295 295 297 298 300 301 303 303 303 305 307 309 310 310 310 307 301 293 285 272 257 254 258 258 253 249 249 247 245 245 244 241 237 234 232 230 228 225 222 221 220 219 219 218 218 221 224 226 228 229 230 231 230 230 231 230 234 241 242 241 243 246 251 253 253 253 254 254 254
290 289 289 290 290 290 290 291 294 295 297 298 297 299 301 303 305 307 309 311 312 310 305 300 290 268 251 248 250 250 246 243 238 232 232 234 234 232 229 226 225 226 224 220 218 217 218 218 218 218 221 224 225 228 229 229 230 230 230 230 230 235 239 240 240 242 244 248 251 252 254 255 254 254
291 287 286 287 286 286 286 287 289 291 293 293 293 293 294 296 299 301 302 304 306 307 307 305 302 292 269 247 243 248 246 239 233 226 220 220 224 225 225 223 222 222 221 218 216 216 217 218 218 219 221 223 225 227 228 228 229 229 229 229 230 234 237 237 237 240 242 246 250 252 254 255 255 254
291 288 286 285 283 283 283 283 285 287 289 291 293 293 293 293 294 294 296 297 297 298 299 298 301 303 292 264 246 242 236 228 227 226 221 217 217 220 222 224 223 221 219 216 215 215 216 216 217 218 220 222 225 226 227 227 227 227 228 228 230 234 236 234 233 237 241 244 249 252 252 254 256 255
289 288 287 284 283 282 281 281 280 281 283 285 287 289 289 290 291 291 292 291 291 291 290 290 292 297 300 286 257 227 216 221 226 227 222 219 220 219 218 220 222 222 221 217 214 214 215 216 216 217 218 220 222 225 225 225 226 227 227 228 230 233 234 231 230 234 238 241 245 250 251 253 255 256
288 287 286 284 283 282 281 281 280 279 279 279 280 281 282 282 282 285 287 286 287 286 282 282 286 286 289 290 278 242 226 225 224 222 219 218 217 210 208 217 221 220 219 217 216 216 215 215 215 216 218 219 220 222 223 224 226 226 226 227 229 231 232 227 226 231 235 239 243 247 251 252 254 255
287 286 285 285 283 282 281 281 280 280 279 277 277 276 276 276 274 275 277 279 281 283 279 276 277 275 274 281 283 272 251 234 220 220 220 216 206 196 197 211 220 220 219 216 215 216 216 216 215 216 218 219 220 220 221 224 226 226 227 227 227 229 228 223 226 233 236 239 243 246 249 251 252 254
286 285 284 284 283 282 282 282 281 280 279 278 277 275 274 273 271 269 269 270 272 274 276 275 271 268 269 274 276 275 270 257 237 227 223 215 206 202 204 208 217 224 220 212 210 216 218 216 215 216 218 218 218 219 221 223 225 226 227 227 226 226 222 220 228 234 233 237 245 247 247 249 251 252
286 285 284 283 282 282 282 281 281 280 280 280 278 277 274 271 270 268 266 266 266 266 268 269 267 266 264 266 267 268 272 271 254 235 225 220 215 212 213 216 220 225 218 208 206 215 218 215 214 217 219 218 218 220 221 222 223 225 226 226 226 224 219 222 231 231 228 235 243 244 245 247 249 250
285 284 283 282 281 281 280 279 279 278 279 280 278 275 273 270 269 268 265 264 263 262 263 265 267 270 267 264 265 265 266 266 258 243 233 227 221 217 219 222 225 229 223 211 205 211 219 216 215 218 220 219 220 222 222 221 222 224 224 225 225 222 220 225 230 227 225 232 237 240 243 244 245 248
285 283 283 282 281 280 280 279 278 277 277 277 276 273 271 270 269 267 264 262 260 259 261 263 267 271 273 271 271 271 267 263 259 255 248 237 228 223 225 227 226 232 230 215 204 209 219 216 215 219 221 221 222 222 222 222 223 223 223 223 222 220 223 228 226 221 222 225 229 237 241 240 241 246
284 283 281 281 281 280 280 279 277 277 276 274 273 272 271 270 269 267 265 263 262 261 260 262 264 267 270 272 274 275 274 269 263 257 246 234 224 218 221 224 222 227 228 216 207 211 219 216 215 218 220 221 222 223 223 223 223 222 222 220 217 218 225 228 222 217 217 219 228 239 237 234 236 241
282 281 280 280 281 280 280 280 279 277 275 272 270 269 270 270 268 268 267 265 264 263 263 263 264 267 269 272 273 273 273 272 266 251 233 221 213 208 208 214 218 222 225 217 209 211 220 219 215 216 219 221 222 223 225 225 224 223 221 217 215 218 223 222 218 215 213 216 230 240 232 228 230 232
281 280 280 279 278 277 278 279 279 278 275 272 268 266 268 268 266 266 268 267 265 264 263 263 263 267 270 270 270 269 265 265 262 247 232 223 214 208 209 212 211 218 225 219 210 209 218 220 212 206 209 221 226 226 227 226 225 223 220 216 214 217 219 218 217 212 209 214 230 237 229 222 223 223
282 281 280 279 277 277 279 280 278 276 273 271 269 266 266 265 264 266 267 266 265 263 262 262 262 266 269 264 262 265 264 265 264 250 237 229 218 212 214 211 198 197 225 220 210 205 210 212 204 195 188 206 228 226 225 226 225 222 217 214 213 214 214 217 217 210 206 214 225 228 222 218 220 221
284 282 281 280 279 280 281 280 278 276 272 270 269 266 263 261 263 266 266 264 264 263 261 260 260 261 264 263 263 267 268 269 273 260 240 230 224 220 217 211 204 209 226 222 212 205 206 206 200 196 195 193 203 210 215 220 221 220 217 214 212 209 208 213 214 207 205 213 221 223 220 218 221 222
286 284 283 282 282 282 282 279 277 275 272 269 267 263 260 261 262 264 264 263 263 262 259 259 259 259 262 265 266 268 267 266 273 270 246 231 227 226 222 216 212 218 228 226 214 204 200 200 197 194 197 200 178 173 192 206 211 212 214 215 211 205 203 206 207 203 204 211 216 216 213 213 218 221
285 284 283 282 281 280 279 278 276 275 272 269 265 263 262 264 264 262 262 261 260 259 257 257 257 257 259 262 263 265 265 262 266 270 254 235 228 229 229 225 221 223 227 227 217 207 201 200 197 190 187 190 179 163 168 182 197 203 208 212 209 201 198 199 198 198 203 207 208 206 206 214 222 227
284 284 283 282 281 279 278 277 276 275 273 269 266 265 264 265 264 262 260 257 255 254 254 254 254 254 255 257 259 262 263 260 260 264 260 242 230 229 231 230 230 231 230 227 221 212 205 202 200 195 190 182 168 161 163 168 183 191 194 201 201 196 193 194 195 199 204 204 203 206 211 219 228 235
283 284 283 282 282 281 279 278 276 275 272 269 267 265 263 262 261 259 256 252 249 249 249 248 249 252 252 253 256 260 262 263 261 264 266 253 236 230 230 229 228 230 230 228 222 212 206 204 202 199 196 188 176 169 168 166 174 181 182 186 190 190 190 194 200 203 204 202 203 208 215 222 231 239
283 284 284 284 283 281 279 278 277 274 271 269 267 265 262 259 255 253 251 247 244 243 244 244 246 249 251 252 255 260 265 266 264 265 267 255 236 227 225 224 224 226 226 226 220 210 206 207 203 196 194 193 187 175 163 158 166 175 177 176 179 186 189 188 187 187 186 192 201 210 222 229 232 232
288 287 287 286 284 282 280 277 274 272 270 269 267 265 261 255 249 246 244 242 239 238 240 242 244 246 250 254 256 260 264 263 260 260 257 243 225 216 213 209 208 214 218 219 215 207 204 206 204 195 188 187 186 177 167 161 162 169 175 174 171 177 181 176 175 177 181 194 208 219 227 222 216 221
290 289 289 288 285 283 280 277 274 271 268 267 264 260 256 250 244 241 238 236 236 237 238 241 243 245 249 252 253 255 256 254 252 252 245 227 210 202 199 192 184 184 190 195 199 200 201 202 201 196 186 178 174 176 177 171 162 162 170 174 171 171 175 177 180 185 192 203 211 210 206 200 199 208
294 292 291 289 286 283 279 276 273 269 265 261 258 253 248 244 240 237 234 233 234 236 237 238 240 242 243 245 248 250 249 246 247 245 232 216 200 191 185 176 162 157 161 170 180 188 194 195 194 193 187 178 170 170 170 165 162 162 165 169 170 170 173 178 184 191 196 197 187 175 175 177 175 169
298 295 292 288 284 281 277 273 270 267 262 257 253 247 241 237 234 232 229 228 229 232 234 235 235 235 236 239 243 243 241 240 240 233 218 205 194 186 181 172 162 158 156 158 165 173 179 183 182 181 181 177 173 170 161 151 154 161 162 162 166 168 174 182 187 189 185 176 165 156 150 146 143 141
302 297 293 289 284 279 275 272 268 265 261 253 246 241 235 231 227 225 224 224 225 227 229 231 231 231 233 235 235 232 229 228 225 217 207 197 188 183 177 168 162 163 159 156 158 160 162 164 162 160 161 159 157 161 160 152 152 157 161 164 168 170 178 189 190 184 177 173 165 149 137 133 131 126
305 299 295 291 287 283 279 275 270 266 261 251 242 236 231 227 224 222 222 222 223 224 224 226 227 228 229 229 226 221 217 214 207 199 195 191 185 181 175 164 158 159 157 154 154 154 154 153 148 141 139 137 131 133 150 155 155 156 159 166 175 179 181 185 184 178 174 172 164 148 135 131 131 127
307 304 302 298 297 296 292 287 280 271 261 251 242 234 228 224 222 221 220 220 219 219 220 220 221 223 224 221 217 213 208 200 192 185 184 182 178 173 166 158 154 154 154 153 154 154 152 151 148 141 134 130 125 113 130 154 163 166 162 165 177 181 174 171 173 172 167 162 157 149 138 131 128 125
317 316 312 308 308 308 305 303 298 283 265 254 245 235 229 225 223 222 222 220 217 216 215 215 215 218 217 213 208 204 197 189 181 176 173 170 165 157 150 146 146 147 148 150 153 154 153 152 150 146 139 132 134 118 115 142 160 170 169 166 169 170 166 164 162 159 155 153 151 147 138 129 124 120
326 325 321 317 318 318 313 314 314 302 278 259 247 237 232 229 227 226 222 218 218 219 218 215 215 215 212 206 198 190 184 179 175 170 165 161 156 150 143 139 138 139 140 143 147 152 153 153 151 150 147 142 140 139 129 133 146 161 170 169 165 163 164 161 152 144 143 143 140 136 131 126 123 122
334 332 328 325 326 325 321 321 324 317 296 270 254 244 238 234 232 229 222 217 217 218 217 216 215 211 206 199 189 180 173 169 164 160 158 156 152 147 142 138 136 135 136 137 141 146 149 150 150 149 146 140 135 140 139 133 137 153 166 168 164 162 162 157 147 140 139 138 133 128 124 121 120 124
339 337 334 333 333 333 332 332 333 328 311 286 267 257 250 242 237 233 229 223 216 212 209 207 204 199 192 185 177 168 162 159 157 155 152 150 147 144 140 137 136 136 134 133 136 139 139 140 143 144 140 135 134 136 134 127 127 139 152 160 165 168 168 164 154 144 140 140 138 131 125 121 119 121
343 341 340 341 342 342 342 343 344 340 330 311 283 264 253 242 230 224 220 213 203 196 192 190 187 182 176 171 166 159 152 147 147 147 144 140 137 137 136 134 134 136 134 130 131 131 131 135 141 142 138 135 133 131 126 117 114 122 132 143 155 161 164 166 159 147 141 142 138 130 123 118 111 102
347 345 346 348 350 350 352 354 356 355 350 342 314 256 221 198 185 178 176 175 174 172 171 170 169 166 163 161 160 157 151 145 142 141 138 134 131 131 132 132 133 133 130 126 125 127 130 136 141 140 137 135 133 127 120 118 119 120 124 131 139 142 141 140 139 136 136 138 135 129 125 122 110 92
352 351 352 354 357 359 1 5 8 9 9 13 26 98 135 135 136 139 141 144 148 150 151 152 153 154 153 153 153 151 146 142 139 137 135 134 132 130 128 128 127 127 125 122 122 127 132 137 140 139 136 135 133 127 122 123 126 125 127 131 134 134 131 125 121 121 122 123 123 124 127 129 121 107
357 356 357 1 4 7 10 14 18 22 25 35 51 81 109 114 117 124 130 133 134 134 134 136 140 143 144 143 142 141 139 138 137 134 132 131 130 128 126 124 122 121 121 121 123 127 131 134 138 139 136 134 134 131 127 127 130 131 133 136 137 137 135 129 123 119 114 108 105 108 112 113 112 110
2 2 5 8 12 15 19 22 26 31 36 45 56 72 91 103 109 116 122 127 128 129 130 130 131 133 135 136 134 133 133 134 133 130 128 127 126 125 124 123 121 120 121 122 121 121 123 126 130 133 132 132 135 135 133 133 135 136 138 140 143 143 140 135 129 121 111 103 102 106 108 108 109 109